QPF
0.01 0.01 0.02 0.02 0.02 0.01 0.01 0.01 0.02 0.05 0.12 0.21 0.25 0.25 0.18 0.11 0.07 0.05 0.04 0.04 0.03 0.02 0.02 0.01 0.01 0.01 0.01 0.01 0.01 0.01 0.01 0.01 0.01 0.01 0.00 0.00 0.00 0.00 0.00 0.00 0.00 0.00 0.00 0.00
0.00 0.00 0.01 0.02 0.02 0.03 0.03 0.03 0.04 0.09 0.21 0.34 0.38 0.35 0.27 0.17 0.11 0.09 0.07 0.05 0.04 0.03 0.02 0.02 0.01 0.01 0.01 0.01 0.01 0.01 0.00 0.00 0.00 0.00 0.00 0.00 0.00 0.00 0.00 0.00 0.00 0.00 0.00 0.00
0.01 0.00 0.01 0.04 0.03 0.03 0.04 0.03 0.04 0.11 0.19 0.25 0.26 0.25 0.25 0.22 0.18 0.15 0.11 0.09 0.08 0.07 0.05 0.04 0.04 0.03 0.02 0.02 0.02 0.01 0.01 0.01 0.01 0.00 0.00 0.00 0.00 0.01 0.01 0.01 0.01 0.01 0.01 0.01
0.01 0.03 0.05 0.08 0.04 0.03 0.04 0.05 0.05 0.08 0.12 0.15 0.16 0.17 0.18 0.20 0.23 0.24 0.20 0.18 0.17 0.14 0.14 0.13 0.11 0.08 0.06 0.05 0.03 0.02 0.02 0.01 0.01 0.01 0.01 0.01 0.01 0.01 0.01 0.01 0.01 0.01 0.01 0.01
0.02 0.05 0.09 0.12 0.04 0.02 0.05 0.10 0.07 0.09 0.10 0.09 0.09 0.10 0.10 0.14 0.18 0.23 0.26 0.27 0.24 0.20 0.17 0.14 0.10 0.07 0.05 0.03 0.02 0.02 0.01 0.01 0.01 0.01 0.01 0.02 0.02 0.02 0.02 0.01 0.01 0.01 0.01 0.01
0.04 0.06 0.12 0.14 0.04 0.01 0.04 0.13 0.11 0.11 0.12 0.13 0.14 0.11 0.08 0.10 0.14 0.17 0.18 0.17 0.16 0.14 0.10 0.07 0.05 0.04 0.03 0.02 0.02 0.01 0.01 0.01 0.01 0.02 0.02 0.02 0.01 0.01 0.01 0.01 0.01 0.01 0.01 0.01
0.06 0.08 0.12 0.04 0.01 0.02 0.10 0.17 0.16 0.13 0.13 0.13 0.11 0.10 0.09 0.10 0.11 0.13 0.13 0.10 0.08 0.05 0.04 0.03 0.02 0.02 0.02 0.02 0.02 0.02 0.02 0.02 0.02 0.02 0.01 0.01 0.01 0.01 0.01 0.01 0.02 0.02 0.02 0.03
0.07 0.09 0.12 0.03 0.02 0.06 0.11 0.14 0.12 0.12 0.10 0.06 0.04 0.04 0.05 0.05 0.04 0.03 0.03 0.02 0.02 0.01 0.02 0.02 0.02 0.03 0.03 0.03 0.03 0.03 0.03 0.03 0.02 0.01 0.01 0.01 0.01 0.02 0.02 0.03 0.03 0.03 0.03 0.03
0.06 0.10 0.09 0.03 0.04 0.06 0.07 0.09 0.09 0.08 0.07 0.04 0.02 0.02 0.02 0.02 0.02 0.02 0.01 0.01 0.01 0.01 0.02 0.02 0.03 0.04 0.04 0.04 0.03 0.03 0.04 0.04 0.02 0.01 0.01 0.01 0.01 0.02 0.02 0.03 0.03 0.03 0.03 0.03
0.03 0.07 0.06 0.04 0.03 0.02 0.03 0.06 0.05 0.05 0.06 0.05 0.02 0.01 0.01 0.01 0.01 0.01 0.01 0.01 0.01 0.02 0.02 0.02 0.03 0.03 0.03 0.03 0.03 0.04 0.04 0.03 0.02 0.02 0.02 0.01 0.01 0.01 0.01 0.02 0.02 0.02 0.03 0.02
0.02 0.04 0.04 0.05 0.03 0.02 0.02 0.03 0.04 0.05 0.07 0.06 0.02 0.01 0.01 0.01 0.01 0.01 0.02 0.02 0.02 0.02 0.02 0.02 0.02 0.01 0.01 0.02 0.03 0.04 0.04 0.02 0.02 0.03 0.03 0.02 0.03 0.02 0.01 0.01 0.00 0.00 0.01 0.01
0.04 0.03 0.03 0.04 0.03 0.02 0.02 0.04 0.06 0.07 0.07 0.05 0.03 0.01 0.01 0.02 0.02 0.02 0.02 0.02 0.02 0.02 0.02 0.01 0.01 0.00 0.00 0.00 0.01 0.02 0.03 0.01 0.01 0.02 0.02 0.02 0.03 0.04 0.01 0.00 0.00 0.00 0.00 0.00
0.00 0.00 0.00 0.01 0.01 0.02 0.02 0.03 0.05 0.08 0.07 0.04 0.03 0.02 0.03 0.03 0.02 0.02 0.02 0.02 0.02 0.01 0.01 0.00 0.00 0.00 0.00 0.00 0.00 0.01 0.01 0.01 0.01 0.01 0.01 0.01 0.02 0.04 0.06 0.03 0.00 0.00 0.00 0.00
0.00 0.00 0.01 0.01 0.02 0.02 0.02 0.02 0.04 0.05 0.04 0.03 0.03 0.03 0.03 0.02 0.02 0.02 0.02 0.01 0.01 0.00 0.00 0.00 0.00 0.00 0.00 0.00 0.00 0.00 0.00 0.00 0.00 0.01 0.00 0.00 0.00 0.01 0.04 0.06 0.05 0.04 0.01 0.00
0.00 0.00 0.01 0.01 0.01 0.01 0.02 0.02 0.03 0.03 0.02 0.03 0.03 0.03 0.02 0.02 0.02 0.01 0.01 0.00 0.00 0.00 0.00 0.00 0.00 0.00 0.00 0.00 0.00 0.00 0.00 0.01 0.01 0.00 0.00 0.00 0.00 0.01 0.02 0.03 0.05 0.06 0.04 0.02
0.00 0.00 0.00 0.01 0.01 0.01 0.02 0.02 0.03 0.03 0.03 0.03 0.03 0.02 0.01 0.01 0.01 0.00 0.00 0.00 0.01 0.00 0.00 0.00 0.00 0.00 0.00 0.00 0.00 0.00 0.01 0.01 0.00 0.00 0.00 0.00 0.00 0.00 0.01 0.02 0.03 0.03 0.02 0.01
0.00 0.00 0.01 0.01 0.01 0.01 0.01 0.02 0.03 0.03 0.03 0.02 0.02 0.01 0.00 0.00 0.00 0.00 0.00 0.00 0.00 0.00 0.00 0.00 0.00 0.00 0.00 0.00 0.00 0.00 0.00 0.00 0.00 0.00 0.00 0.00 0.00 0.00 0.00 0.01 0.01 0.02 0.01 0.00
0.00 0.00 0.01 0.01 0.01 0.01 0.01 0.02 0.02 0.02 0.01 0.01 0.01 0.00 0.00 0.01 0.00 0.00 0.00 0.00 0.00 0.00 0.00 0.00 0.00 0.00 0.00 0.00 0.00 0.00 0.00 0.00 0.00 0.00 0.00 0.00 0.00 0.00 0.00 0.00 0.01 0.01 0.01 0.01
0.00 0.00 0.00 0.00 0.00 0.01 0.01 0.02 0.01 0.01 0.01 0.01 0.01 0.01 0.01 0.00 0.00 0.00 0.00 0.00 0.00 0.00 0.00 0.00 0.00 0.00 0.00 0.00 0.00 0.00 0.00 0.00 0.00 0.00 0.00 0.00 0.00 0.00 0.00 0.00 0.01 0.01 0.01 0.01
0.00 0.00 0.00 0.00 0.01 0.01 0.01 0.00 0.00 0.00 0.00 0.00 0.00 0.00 0.00 0.00 0.00 0.00 0.00 0.00 0.00 0.00 0.00 0.00 0.00 0.00 0.00 0.00 0.00 0.00 0.00 0.00 0.00 0.00 0.00 0.00 0.00 0.00 0.00 0.00 0.00 0.01 0.01 0.01
0.00 0.00 0.00 0.00 0.00 0.00 0.00 0.00 0.00 0.00 0.00 0.00 0.00 0.00 0.00 0.00 0.00 0.00 0.00 0.00 0.00 0.00 0.00 0.00 0.00 0.00 0.00 0.00 0.00 0.00 0.00 0.00 0.00 0.00 0.00 0.00 0.00 0.00 0.00 0.00 0.00 0.00 0.01 0.01
0.00 0.00 0.00 0.00 0.00 0.00 0.00 0.00 0.00 0.00 0.00 0.00 0.00 0.00 0.00 0.00 0.00 0.00 0.00 0.00 0.00 0.00 0.00 0.00 0.00 0.00 0.00 0.00 0.00 0.00 0.00 0.00 0.00 0.00 0.00 0.00 0.00 0.00 0.00 0.00 0.00 0.00 0.00 0.01
0.00 0.00 0.00 0.00 0.00 0.00 0.00 0.00 0.00 0.00 0.00 0.00 0.00 0.00 0.00 0.00 0.00 0.00 0.00 0.00 0.00 0.00 0.00 0.00 0.00 0.00 0.00 0.00 0.00 0.00 0.00 0.00 0.00 0.00 0.00 0.00 0.00 0.00 0.00 0.00 0.00 0.00 0.00 0.01
0.00 0.00 0.00 0.00 0.00 0.00 0.00 0.00 0.00 0.00 0.00 0.00 0.00 0.00 0.00 0.00 0.00 0.00 0.00 0.00 0.00 0.00 0.00 0.00 0.00 0.00 0.00 0.00 0.00 0.00 0.00 0.00 0.00 0.00 0.00 0.00 0.00 0.00 0.00 0.00 0.00 0.00 0.00 0.00
0.00 0.00 0.00 0.01 0.00 0.00 0.00 0.00 0.00 0.00 0.00 0.00 0.00 0.00 0.00 0.00 0.00 0.00 0.00 0.00 0.00 0.00 0.00 0.00 0.00 0.00 0.00 0.00 0.00 0.00 0.00 0.00 0.00 0.00 0.00 0.00 0.00 0.00 0.00 0.00 0.00 0.00 0.00 0.00
0.01 0.01 0.00 0.00 0.00 0.00 0.00 0.00 0.00 0.00 0.00 0.00 0.00 0.00 0.00 0.00 0.00 0.00 0.00 0.00 0.00 0.00 0.00 0.00 0.00 0.00 0.00 0.00 0.00 0.00 0.00 0.00 0.00 0.00 0.00 0.00 0.00 0.00 0.00 0.00 0.00 0.00 0.00 0.00
0.04 0.03 0.02 0.00 0.00 0.00 0.00 0.00 0.00 0.00 0.00 0.00 0.00 0.00 0.00 0.00 0.00 0.00 0.00 0.00 0.00 0.00 0.00 0.00 0.00 0.00 0.00 0.00 0.00 0.00 0.00 0.00 0.00 0.00 0.00 0.00 0.00 0.00 0.00 0.00 0.00 0.00 0.00 0.00
MSLP
1009.37 1009.34 1009.28 1009.21 1009.15 1009.11 1009.13 1009.21 1009.39 1009.69 1010.12 1010.68 1011.37 1012.16 1013.02 1013.90 1014.74 1015.48 1016.10 1016.55 1016.85 1017.00 1017.06 1017.08 1017.12 1017.23 1017.45 1017.78 1018.21 1018.70 1019.22 1019.70 1020.13 1020.46 1020.70 1020.87 1021.00 1021.13 1021.30 1021.52 1021.81 1022.16 1022.53 1022.89
1010.06 1010.07 1010.03 1009.97 1009.91 1009.88 1009.92 1010.06 1010.32 1010.71 1011.24 1011.91 1012.68 1013.52 1014.38 1015.22 1015.98 1016.64 1017.15 1017.51 1017.73 1017.85 1017.91 1017.97 1018.07 1018.24 1018.51 1018.87 1019.31 1019.78 1020.24 1020.65 1020.98 1021.23 1021.40 1021.51 1021.60 1021.71 1021.86 1022.09 1022.39 1022.73 1023.11 1023.46
1010.69 1010.76 1010.76 1010.73 1010.69 1010.70 1010.78 1010.97 1011.31 1011.78 1012.40 1013.14 1013.97 1014.84 1015.69 1016.49 1017.19 1017.76 1018.19 1018.48 1018.66 1018.76 1018.83 1018.92 1019.07 1019.29 1019.59 1019.97 1020.39 1020.82 1021.21 1021.55 1021.80 1021.96 1022.06 1022.11 1022.16 1022.25 1022.39 1022.60 1022.89 1023.22 1023.57 1023.90
1011.25 1011.38 1011.43 1011.44 1011.44 1011.48 1011.61 1011.85 1012.24 1012.78 1013.46 1014.25 1015.11 1015.99 1016.83 1017.59 1018.24 1018.75 1019.13 1019.37 1019.53 1019.63 1019.72 1019.84 1020.02 1020.28 1020.60 1020.98 1021.37 1021.75 1022.07 1022.33 1022.50 1022.59 1022.62 1022.62 1022.63 1022.69 1022.80 1022.99 1023.25 1023.55 1023.86 1024.14
1011.75 1011.92 1012.01 1012.05 1012.09 1012.16 1012.32 1012.60 1013.03 1013.61 1014.32 1015.14 1016.01 1016.89 1017.72 1018.45 1019.06 1019.53 1019.88 1020.10 1020.25 1020.37 1020.49 1020.64 1020.85 1021.13 1021.45 1021.81 1022.17 1022.49 1022.75 1022.93 1023.03 1023.05 1023.03 1022.99 1022.97 1022.99 1023.07 1023.23 1023.45 1023.70 1023.96 1024.19
1012.20 1012.39 1012.50 1012.57 1012.62 1012.71 1012.89 1013.20 1013.64 1014.24 1014.97 1015.79 1016.66 1017.53 1018.34 1019.05 1019.64 1020.09 1020.42 1020.65 1020.81 1020.94 1021.08 1021.26 1021.49 1021.77 1022.10 1022.43 1022.75 1023.01 1023.21 1023.33 1023.37 1023.35 1023.28 1023.21 1023.15 1023.15 1023.21 1023.33 1023.50 1023.71 1023.92 1024.11
1012.61 1012.80 1012.92 1012.99 1013.05 1013.15 1013.34 1013.65 1014.10 1014.70 1015.42 1016.24 1017.10 1017.95 1018.74 1019.44 1020.01 1020.45 1020.78 1021.01 1021.18 1021.33 1021.50 1021.69 1021.93 1022.21 1022.51 1022.81 1023.09 1023.31 1023.45 1023.53 1023.53 1023.47 1023.38 1023.29 1023.22 1023.20 1023.24 1023.33 1023.48 1023.65 1023.82 1023.98
1013.01 1013.19 1013.30 1013.37 1013.43 1013.53 1013.71 1014.02 1014.47 1015.05 1015.76 1016.56 1017.40 1018.23 1019.00 1019.68 1020.24 1020.67 1021.00 1021.24 1021.42 1021.58 1021.75 1021.95 1022.18 1022.44 1022.71 1022.98 1023.21 1023.39 1023.50 1023.54 1023.52 1023.45 1023.35 1023.26 1023.20 1023.19 1023.22 1023.31 1023.45 1023.60 1023.76 1023.90
1013.39 1013.56 1013.66 1013.73 1013.79 1013.90 1014.08 1014.38 1014.82 1015.39 1016.07 1016.84 1017.65 1018.45 1019.19 1019.85 1020.39 1020.81 1021.13 1021.37 1021.55 1021.71 1021.88 1022.06 1022.27 1022.50 1022.74 1022.97 1023.16 1023.31 1023.39 1023.41 1023.38 1023.32 1023.24 1023.17 1023.14 1023.15 1023.21 1023.32 1023.46 1023.63 1023.80 1023.94
1013.75 1013.92 1014.04 1014.12 1014.20 1014.31 1014.50 1014.80 1015.22 1015.77 1016.43 1017.16 1017.93 1018.68 1019.38 1020.00 1020.52 1020.92 1021.23 1021.45 1021.62 1021.77 1021.91 1022.08 1022.25 1022.45 1022.65 1022.84 1023.00 1023.11 1023.17 1023.19 1023.17 1023.13 1023.08 1023.05 1023.06 1023.12 1023.22 1023.37 1023.56 1023.76 1023.95 1024.12
1014.09 1014.29 1014.44 1014.55 1014.67 1014.81 1015.02 1015.32 1015.73 1016.25 1016.86 1017.54 1018.25 1018.96 1019.61 1020.18 1020.65 1021.02 1021.30 1021.50 1021.65 1021.78 1021.90 1022.03 1022.17 1022.33 1022.49 1022.64 1022.76 1022.85 1022.90 1022.91 1022.90 1022.89 1022.89 1022.91 1022.98 1023.09 1023.26 1023.47 1023.70 1023.95 1024.18 1024.38
1014.40 1014.65 1014.86 1015.04 1015.20 1015.39 1015.62 1015.93 1016.33 1016.81 1017.38 1018.00 1018.64 1019.27 1019.86 1020.37 1020.79 1021.12 1021.36 1021.54 1021.66 1021.77 1021.86 1021.96 1022.06 1022.18 1022.30 1022.41 1022.50 1022.56 1022.60 1022.61 1022.62 1022.63 1022.67 1022.74 1022.87 1023.05 1023.28 1023.55 1023.85 1024.15 1024.42 1024.65
1014.67 1015.00 1015.29 1015.55 1015.79 1016.02 1016.29 1016.61 1016.99 1017.44 1017.95 1018.50 1019.06 1019.61 1020.12 1020.56 1020.93 1021.21 1021.42 1021.57 1021.67 1021.75 1021.82 1021.89 1021.97 1022.05 1022.13 1022.20 1022.25 1022.29 1022.31 1022.32 1022.33 1022.36 1022.43 1022.55 1022.73 1022.96 1023.25 1023.59 1023.94 1024.29 1024.60 1024.85
1014.90 1015.33 1015.72 1016.06 1016.37 1016.67 1016.97 1017.29 1017.66 1018.06 1018.51 1018.99 1019.47 1019.93 1020.37 1020.74 1021.05 1021.30 1021.48 1021.60 1021.69 1021.75 1021.81 1021.86 1021.91 1021.96 1022.01 1022.04 1022.06 1022.07 1022.06 1022.06 1022.06 1022.10 1022.19 1022.33 1022.54 1022.82 1023.16 1023.53 1023.93 1024.32 1024.66 1024.93
1015.10 1015.63 1016.11 1016.54 1016.93 1017.28 1017.61 1017.93 1018.27 1018.64 1019.02 1019.42 1019.83 1020.22 1020.58 1020.90 1021.17 1021.38 1021.54 1021.66 1021.74 1021.80 1021.85 1021.88 1021.92 1021.94 1021.96 1021.96 1021.94 1021.91 1021.88 1021.85 1021.84 1021.87 1021.95 1022.11 1022.33 1022.63 1023.00 1023.40 1023.83 1024.24 1024.60 1024.88
1015.28 1015.89 1016.46 1016.97 1017.41 1017.80 1018.14 1018.47 1018.79 1019.11 1019.44 1019.77 1020.12 1020.45 1020.76 1021.04 1021.28 1021.48 1021.64 1021.76 1021.85 1021.91 1021.96 1021.99 1022.01 1022.01 1022.00 1021.96 1021.91 1021.85 1021.78 1021.72 1021.68 1021.69 1021.76 1021.91 1022.14 1022.44 1022.81 1023.22 1023.65 1024.07 1024.44 1024.72
1015.46 1016.13 1016.76 1017.32 1017.80 1018.21 1018.56 1018.88 1019.17 1019.45 1019.74 1020.03 1020.33 1020.63 1020.91 1021.18 1021.41 1021.62 1021.78 1021.92 1022.02 1022.10 1022.15 1022.18 1022.18 1022.17 1022.13 1022.06 1021.98 1021.88 1021.77 1021.68 1021.62 1021.60 1021.65 1021.78 1021.99 1022.28 1022.64 1023.05 1023.48 1023.89 1024.25 1024.53
1015.65 1016.36 1017.01 1017.59 1018.09 1018.50 1018.85 1019.15 1019.42 1019.68 1019.94 1020.21 1020.49 1020.77 1021.05 1021.32 1021.57 1021.79 1021.98 1022.14 1022.26 1022.35 1022.41 1022.43 1022.43 1022.39 1022.33 1022.24 1022.12 1021.99 1021.86 1021.74 1021.65 1021.61 1021.64 1021.75 1021.94 1022.21 1022.55 1022.94 1023.35 1023.75 1024.11 1024.38
1015.85 1016.57 1017.23 1017.81 1018.29 1018.69 1019.02 1019.31 1019.56 1019.80 1020.05 1020.31 1020.59 1020.89 1021.18 1021.48 1021.76 1022.01 1022.23 1022.41 1022.55 1022.65 1022.71 1022.73 1022.71 1022.66 1022.57 1022.46 1022.32 1022.17 1022.02 1021.89 1021.78 1021.73 1021.74 1021.84 1022.01 1022.26 1022.58 1022.94 1023.33 1023.71 1024.05 1024.32
1016.08 1016.78 1017.42 1017.97 1018.43 1018.81 1019.11 1019.37 1019.61 1019.85 1020.10 1020.37 1020.67 1020.99 1021.31 1021.64 1021.95 1022.24 1022.48 1022.69 1022.84 1022.94 1023.00 1023.01 1022.98 1022.91 1022.81 1022.69 1022.54 1022.39 1022.24 1022.10 1022.00 1021.95 1021.96 1022.04 1022.20 1022.43 1022.72 1023.06 1023.43 1023.79 1024.11 1024.37
1016.31 1016.99 1017.60 1018.11 1018.53 1018.87 1019.14 1019.39 1019.61 1019.85 1020.11 1020.40 1020.72 1021.07 1021.43 1021.79 1022.13 1022.45 1022.71 1022.93 1023.09 1023.19 1023.24 1023.24 1023.20 1023.12 1023.02 1022.89 1022.75 1022.61 1022.47 1022.35 1022.27 1022.23 1022.25 1022.33 1022.48 1022.70 1022.97 1023.29 1023.62 1023.96 1024.26 1024.52
1016.54 1017.19 1017.75 1018.21 1018.59 1018.89 1019.14 1019.37 1019.59 1019.82 1020.09 1020.40 1020.75 1021.12 1021.51 1021.90 1022.26 1022.59 1022.87 1023.09 1023.24 1023.34 1023.38 1023.37 1023.33 1023.25 1023.15 1023.04 1022.92 1022.80 1022.70 1022.61 1022.56 1022.55 1022.59 1022.68 1022.83 1023.03 1023.29 1023.58 1023.89 1024.20 1024.49 1024.73
1016.74 1017.35 1017.87 1018.29 1018.63 1018.90 1019.12 1019.33 1019.54 1019.78 1020.06 1020.38 1020.74 1021.13 1021.53 1021.93 1022.30 1022.64 1022.91 1023.13 1023.28 1023.37 1023.40 1023.40 1023.35 1023.29 1023.21 1023.12 1023.04 1022.97 1022.91 1022.87 1022.86 1022.88 1022.94 1023.05 1023.20 1023.40 1023.64 1023.90 1024.19 1024.48 1024.74 1024.98
1016.87 1017.45 1017.93 1018.32 1018.63 1018.87 1019.08 1019.27 1019.48 1019.71 1019.99 1020.32 1020.68 1021.08 1021.48 1021.87 1022.24 1022.56 1022.83 1023.04 1023.18 1023.27 1023.30 1023.30 1023.28 1023.24 1023.19 1023.15 1023.12 1023.10 1023.09 1023.10 1023.14 1023.20 1023.29 1023.42 1023.58 1023.77 1023.99 1024.24 1024.50 1024.77 1025.02 1025.25
1016.92 1017.47 1017.92 1018.29 1018.57 1018.80 1019.00 1019.18 1019.39 1019.62 1019.89 1020.21 1020.57 1020.95 1021.34 1021.72 1022.07 1022.37 1022.63 1022.82 1022.96 1023.05 1023.10 1023.13 1023.13 1023.13 1023.13 1023.14 1023.17 1023.21 1023.26 1023.33 1023.42 1023.52 1023.64 1023.78 1023.95 1024.13 1024.35 1024.58 1024.82 1025.07 1025.32 1025.54
1016.85 1017.38 1017.82 1018.17 1018.45 1018.67 1018.87 1019.05 1019.26 1019.49 1019.76 1020.06 1020.40 1020.76 1021.13 1021.48 1021.80 1022.09 1022.33 1022.52 1022.66 1022.76 1022.84 1022.89 1022.94 1022.99 1023.05 1023.13 1023.22 1023.32 1023.44 1023.56 1023.69 1023.83 1023.98 1024.14 1024.31 1024.50 1024.70 1024.92 1025.16 1025.40 1025.64 1025.87
1016.67 1017.18 1017.61 1017.96 1018.24 1018.47 1018.68 1018.88 1019.08 1019.32 1019.58 1019.87 1020.19 1020.53 1020.87 1021.19 1021.49 1021.76 1021.98 1022.17 1022.33 1022.45 1022.56 1022.66 1022.77 1022.88 1023.00 1023.14 1023.30 1023.46 1023.63 1023.81 1023.98 1024.16 1024.33 1024.50 1024.68 1024.87 1025.07 1025.29 1025.52 1025.76 1026.01 1026.25
Thickness
5669 5670 5669 5670 5674 5678 5677 5682 5678 5677 5675 5671 5667 5659 5649 5642 5637 5634 5632 5630 5629 5627 5625 5623 5621 5618 5615 5611 5606 5602 5596 5590 5583 5578 5572 5567 5561 5556 5552 5547 5543 5538 5534 5530
5664 5672 5671 5665 5664 5665 5665 5668 5668 5665 5653 5652 5649 5643 5635 5629 5625 5621 5618 5616 5613 5611 5608 5606 5603 5599 5595 5590 5586 5582 5577 5571 5565 5559 5554 5548 5543 5538 5534 5530 5525 5521 5517 5512
5651 5667 5667 5648 5650 5654 5654 5656 5659 5647 5638 5636 5628 5622 5618 5616 5613 5609 5605 5600 5595 5592 5589 5585 5582 5579 5574 5570 5566 5562 5557 5551 5546 5541 5537 5532 5528 5523 5518 5513 5509 5504 5500 5494
5645 5648 5632 5629 5647 5649 5644 5639 5642 5634 5627 5618 5609 5603 5602 5602 5599 5593 5588 5582 5578 5574 5570 5567 5563 5560 5556 5552 5548 5544 5539 5534 5529 5525 5521 5516 5512 5507 5502 5497 5493 5488 5483 5478
5636 5631 5622 5620 5628 5634 5630 5618 5622 5617 5610 5604 5600 5596 5585 5583 5582 5578 5572 5568 5563 5559 5556 5553 5549 5546 5542 5537 5532 5528 5523 5518 5514 5510 5506 5502 5497 5492 5487 5482 5478 5474 5469 5463
5630 5617 5604 5602 5624 5635 5629 5602 5607 5607 5602 5599 5599 5585 5570 5566 5566 5562 5558 5554 5550 5547 5543 5539 5535 5532 5528 5523 5519 5514 5510 5505 5501 5497 5492 5487 5482 5477 5471 5467 5463 5459 5454 5450
5620 5612 5598 5610 5624 5629 5601 5585 5595 5596 5593 5589 5583 5573 5561 5556 5553 5550 5547 5543 5539 5535 5531 5527 5523 5520 5515 5511 5506 5502 5498 5493 5488 5483 5479 5473 5467 5462 5457 5453 5448 5444 5441 5437
5611 5599 5585 5604 5609 5596 5586 5590 5588 5585 5581 5575 5567 5559 5553 5548 5543 5540 5536 5532 5529 5525 5520 5516 5513 5508 5503 5499 5495 5491 5486 5481 5477 5471 5467 5461 5455 5449 5444 5440 5437 5433 5429 5425
5601 5591 5593 5598 5594 5591 5590 5584 5580 5576 5571 5566 5559 5552 5545 5539 5535 5531 5528 5524 5520 5516 5511 5507 5503 5498 5493 5488 5485 5480 5475 5470 5465 5459 5454 5449 5444 5439 5435 5430 5426 5423 5419 5415
5599 5593 5594 5593 5590 5587 5584 5579 5576 5572 5566 5560 5553 5545 5538 5532 5527 5523 5520 5516 5512 5508 5503 5498 5494 5490 5485 5481 5476 5470 5464 5459 5454 5449 5444 5439 5434 5430 5425 5420 5416 5413 5409 5405
5596 5591 5588 5583 5582 5579 5576 5574 5570 5566 5561 5554 5546 5538 5531 5526 5521 5517 5513 5509 5505 5501 5497 5492 5488 5483 5478 5472 5467 5461 5456 5451 5447 5442 5437 5432 5427 5420 5416 5408 5403 5399 5396 5393
5586 5586 5583 5576 5576 5574 5571 5567 5564 5559 5553 5546 5539 5532 5526 5520 5515 5511 5507 5504 5499 5495 5490 5486 5481 5476 5471 5465 5460 5454 5448 5444 5441 5437 5432 5429 5423 5415 5406 5401 5395 5390 5386 5382
5588 5584 5581 5576 5572 5568 5565 5562 5558 5553 5546 5539 5532 5526 5521 5515 5511 5507 5503 5498 5494 5489 5485 5480 5475 5470 5465 5459 5454 5448 5443 5439 5437 5434 5430 5426 5422 5417 5407 5397 5391 5387 5384 5381
5584 5580 5574 5569 5564 5562 5558 5555 5551 5545 5539 5533 5526 5521 5516 5512 5508 5503 5499 5494 5490 5485 5480 5475 5470 5465 5460 5455 5450 5445 5441 5436 5432 5430 5428 5425 5421 5418 5413 5405 5397 5391 5385 5382
5579 5575 5569 5564 5559 5555 5551 5548 5542 5537 5532 5526 5522 5518 5514 5509 5504 5500 5496 5491 5487 5482 5477 5472 5467 5462 5458 5454 5449 5445 5441 5436 5432 5430 5428 5425 5422 5418 5414 5408 5402 5396 5391 5388
5574 5569 5564 5559 5554 5550 5546 5542 5537 5532 5528 5524 5520 5516 5511 5506 5501 5497 5493 5488 5483 5478 5473 5468 5464 5461 5458 5454 5450 5447 5443 5436 5432 5431 5430 5425 5422 5418 5413 5408 5403 5399 5395 5393
5570 5564 5559 5555 5551 5547 5543 5539 5535 5531 5526 5522 5518 5514 5509 5504 5499 5494 5490 5486 5481 5475 5471 5466 5462 5459 5459 5455 5451 5450 5448 5441 5433 5433 5430 5426 5422 5418 5414 5410 5406 5402 5399 5396
5571 5565 5559 5554 5550 5545 5540 5537 5533 5529 5525 5521 5517 5512 5507 5502 5497 5492 5489 5484 5480 5474 5469 5465 5459 5457 5456 5453 5449 5448 5448 5446 5440 5435 5430 5425 5422 5419 5416 5412 5409 5407 5405 5402
5567 5561 5556 5551 5548 5544 5539 5535 5531 5527 5524 5520 5515 5511 5507 5502 5497 5492 5488 5485 5480 5473 5467 5463 5458 5456 5456 5452 5447 5449 5450 5447 5442 5436 5432 5424 5425 5422 5419 5416 5413 5411 5409 5406
5562 5557 5553 5548 5545 5541 5537 5533 5530 5526 5523 5519 5514 5510 5505 5501 5497 5493 5488 5483 5476 5472 5468 5462 5461 5459 5455 5452 5448 5452 5450 5447 5443 5439 5434 5431 5428 5424 5422 5419 5416 5414 5411 5409
5558 5553 5550 5546 5542 5539 5536 5532 5529 5525 5522 5518 5514 5509 5505 5501 5498 5493 5489 5483 5475 5470 5467 5462 5459 5456 5454 5448 5449 5452 5451 5446 5443 5439 5436 5433 5429 5426 5422 5420 5417 5415 5413 5410
5555 5551 5547 5544 5540 5537 5534 5531 5528 5525 5521 5518 5514 5510 5505 5501 5498 5493 5487 5482 5476 5468 5468 5465 5458 5451 5448 5446 5452 5453 5450 5446 5443 5439 5436 5433 5430 5426 5423 5420 5417 5415 5412 5410
5553 5549 5545 5541 5538 5535 5532 5531 5528 5524 5521 5518 5514 5510 5507 5504 5502 5497 5489 5483 5478 5469 5467 5461 5453 5450 5446 5449 5453 5451 5447 5445 5442 5440 5437 5434 5430 5426 5423 5420 5417 5414 5413 5412
5550 5546 5542 5539 5536 5532 5530 5529 5527 5523 5521 5518 5515 5511 5509 5506 5503 5497 5487 5479 5475 5472 5467 5460 5455 5451 5448 5451 5453 5451 5448 5445 5443 5441 5438 5435 5431 5427 5424 5420 5417 5415 5414 5413
5547 5543 5539 5536 5533 5531 5529 5527 5524 5522 5521 5519 5516 5513 5511 5511 5506 5499 5492 5484 5476 5473 5471 5465 5460 5457 5455 5457 5453 5448 5445 5442 5440 5439 5436 5434 5432 5428 5424 5421 5419 5417 5415 5414
5544 5540 5537 5534 5533 5531 5529 5527 5525 5523 5523 5520 5517 5515 5515 5512 5506 5500 5494 5490 5486 5479 5479 5475 5472 5465 5463 5459 5454 5450 5446 5443 5443 5440 5437 5434 5431 5428 5425 5422 5420 5419 5417 5416
5542 5538 5534 5533 5532 5532 5531 5529 5527 5526 5525 5522 5520 5518 5517 5512 5508 5505 5501 5498 5493 5490 5487 5483 5479 5474 5468 5463 5458 5453 5449 5446 5444 5441 5438 5434 5432 5429 5427 5425 5423 5422 5420 5419